Theta_e
286 281 279 281 284 281 281 280 281 284 288 287 287 290 293 295 294 293 294 295 297 300 304 305 305 305 306 306 306 308 309 311 310 308 306 307 305 302 297 298 301 300 300 297
281 279 284 285 284 283 282 280 280 284 287 288 286 286 290 291 294 298 297 296 296 299 300 302 303 304 305 305 305 306 309 309 310 311 311 307 307 304 304 299 298 300 298 296
279 281 286 284 281 281 281 281 280 282 284 285 284 283 287 290 292 295 298 300 299 299 300 301 302 303 304 304 305 305 307 308 310 310 305 299 299 297 299 297 296 296 297 296
282 286 283 280 281 282 278 283 284 283 282 277 283 276 283 286 289 292 295 297 298 298 300 302 303 303 303 303 305 306 305 307 308 308 306 305 305 304 301 301 298 297 295 295
281 280 281 281 280 284 281 285 284 283 280 279 279 277 279 284 285 290 292 295 298 300 300 301 302 304 304 304 304 305 304 304 306 306 307 305 305 305 298 297 298 297 296 295
282 283 283 283 284 285 286 285 284 282 281 274 278 278 279 281 285 287 289 291 296 298 299 301 303 304 304 303 302 303 303 302 302 303 305 304 305 299 296 296 298 297 297 297
281 281 281 283 281 283 284 282 276 274 273 273 278 277 281 284 286 287 290 291 291 293 295 298 299 301 302 301 301 301 301 300 299 300 302 303 304 300 300 298 298 294 295 294
275 273 281 283 282 280 281 282 277 271 272 274 278 276 281 287 290 293 292 290 288 289 291 294 298 300 302 301 301 300 298 298 297 298 299 300 301 299 299 298 298 298 297 298
273 274 279 282 284 285 280 278 284 278 270 275 276 279 283 286 287 287 286 287 288 288 290 292 296 297 300 300 300 299 297 297 296 296 296 296 297 296 297 296 296 296 296 295
277 274 279 280 284 284 283 285 279 279 268 268 274 276 279 281 284 286 286 286 287 287 289 290 292 295 297 298 299 299 298 297 295 295 295 295 295 296 296 295 294 293 294 293
278 276 275 281 279 280 280 279 280 281 278 274 272 275 281 285 284 283 285 286 286 287 289 290 291 291 294 296 296 297 296 296 294 294 295 295 295 295 295 294 294 293 292 292
282 277 272 276 278 280 283 281 282 277 276 277 276 277 283 283 284 284 285 286 285 286 289 290 291 292 292 294 295 295 295 295 295 294 294 294 294 294 293 293 292 292 292 291
283 276 265 271 276 277 279 281 283 283 279 277 275 278 284 283 284 285 285 285 287 287 287 290 291 292 292 293 294 294 295 295 294 293 292 291 292 292 292 292 291 291 291 291
288 279 277 272 275 277 277 279 281 281 278 278 279 280 280 283 283 284 285 285 285 286 288 289 289 291 292 292 293 293 294 295 294 293 292 291 291 291 291 291 291 291 291 291
284 272 278 279 277 278 279 280 280 279 281 278 281 281 281 285 287 285 285 285 285 286 287 289 289 289 291 291 291 292 293 294 294 293 292 292 292 292 292 291 291 291 291 291
283 273 277 270 278 278 277 279 280 281 282 281 282 282 285 287 286 283 286 286 285 286 287 289 289 289 290 291 291 291 291 292 294 294 293 293 292 292 291 291 290 289 289 289
281 273 269 264 276 276 270 277 278 279 282 283 279 284 283 284 285 285 285 286 287 287 287 288 289 289 290 290 292 291 291 291 291 292 291 291 291 290 290 289 289 288 287 287
281 279 272 267 266 268 278 282 283 280 282 283 284 285 286 287 287 287 287 288 287 287 288 289 289 289 290 291 291 291 291 291 290 290 290 290 290 289 289 289 288 287 287 286
284 282 269 272 273 273 277 279 278 278 280 284 283 286 285 284 284 286 287 288 289 288 289 289 291 290 290 290 290 290 289 289 289 289 288 289 289 288 287 287 286 286 285 285
283 284 278 263 272 269 279 281 282 283 276 286 285 285 285 283 281 287 287 288 289 290 290 289 290 290 290 289 290 289 288 288 287 287 287 287 288 288 287 286 285 284 285 284
277 277 276 276 271 271 279 280 283 274 278 283 285 286 284 283 288 287 289 288 290 291 290 290 290 290 290 289 289 287 287 286 285 286 286 286 286 286 285 285 285 284 284 283
278 276 276 273 271 269 281 280 280 283 284 285 282 284 285 288 286 287 287 287 288 289 289 290 290 289 288 289 288 286 286 284 285 285 285 284 284 285 285 284 284 284 284 283
276 280 276 279 279 283 282 284 286 284 285 285 285 284 283 284 284 286 286 286 287 288 288 289 289 287 287 288 288 286 284 285 284 284 283 283 283 284 284 284 284 283 284 283
280 281 279 279 282 282 283 283 284 285 286 286 286 285 285 284 284 285 285 285 285 286 286 287 287 287 286 287 287 286 285 284 284 283 282 283 282 282 283 284 284 283 283 282
283 282 277 276 280 281 283 284 284 285 285 286 285 286 287 286 285 285 285 284 284 285 285 286 287 286 285 286 284 284 284 284 283 282 282 282 282 282 282 283 283 283 283 284
281 282 281 280 282 283 284 287 285 285 285 285 285 284 285 285 285 284 284 284 284 284 284 285 285 285 284 284 284 284 285 284 283 282 282 282 282 282 282 282 282 285 286 286
Wind_Speed
3 4 10 12 18 3 3 4 5 2 5 4 8 12 16 9 7 9 10 9 12 15 13 9 12 12 12 13 15 16 15 14 12 7 8 7 8 4 2 4 7 8 7 7
1 16 9 7 6 7 6 7 8 5 6 5 8 12 13 9 8 14 16 13 14 13 8 8 13 15 17 17 16 17 17 16 14 11 9 4 6 3 4 5 6 7 7 7
9 4 10 11 6 11 11 16 5 5 3 4 4 9 10 7 9 12 14 16 14 15 14 12 14 19 16 18 20 19 19 17 15 14 7 4 4 3 3 4 4 5 7 8
10 11 5 7 14 10 13 8 8 7 2 8 3 11 10 5 10 10 16 14 16 14 13 13 16 15 19 22 18 18 18 18 15 15 13 15 10 10 6 6 4 5 7 7
12 6 11 17 8 14 11 9 12 9 5 3 10 5 7 4 9 14 11 14 17 17 15 16 17 20 19 15 17 16 16 16 17 17 16 13 13 9 4 4 8 7 6 8
9 2 7 8 7 16 5 3 3 3 4 5 11 11 14 11 10 8 7 11 15 13 12 15 15 14 12 12 14 16 18 18 17 16 17 18 17 9 7 6 7 6 5 6
11 14 2 4 5 2 7 7 3 1 2 12 4 10 18 5 5 8 10 12 11 10 8 10 10 13 14 17 18 16 17 18 17 18 17 17 16 13 14 10 8 7 5 4
12 11 18 11 13 8 18 10 6 8 6 4 4 10 9 10 11 15 13 10 6 7 7 9 10 13 15 17 17 17 18 17 18 18 17 14 15 10 9 10 7 8 7 7
7 9 2 7 9 13 6 14 13 3 2 2 7 8 9 10 10 11 12 7 10 8 7 8 7 9 11 14 18 20 18 16 16 18 15 14 12 12 11 11 9 7 6 5
6 3 3 4 5 6 11 9 6 5 5 6 5 4 9 2 10 11 9 9 9 6 5 2 3 6 5 8 11 13 14 16 14 14 14 13 13 13 11 9 10 8 7 6
6 5 1 5 10 21 6 7 6 5 5 6 5 8 9 13 6 6 9 8 8 8 6 4 1 1 4 5 7 11 12 13 12 13 12 12 11 11 10 10 9 9 6 7
15 4 5 9 4 3 14 11 12 8 16 7 1 10 4 7 6 6 9 8 4 4 5 4 3 2 3 6 6 8 9 12 12 11 11 11 10 10 10 9 9 8 8 6
15 6 3 6 4 2 8 13 16 18 3 18 9 13 5 5 5 5 5 6 4 5 4 3 3 4 4 5 6 6 7 9 10 11 11 9 9 10 10 9 8 7 7 7
20 5 14 15 8 8 8 8 10 8 11 19 17 18 3 5 7 6 5 5 5 5 6 4 3 4 4 4 5 6 6 7 10 11 10 10 10 9 8 7 7 7 7 7
15 8 11 17 5 4 7 19 13 17 24 12 27 23 9 12 13 9 6 4 6 7 7 6 6 5 5 5 4 5 5 6 8 10 10 9 8 7 7 7 7 7 7 6
5 6 7 4 8 5 5 9 17 20 23 21 27 26 9 10 8 4 7 8 10 9 8 8 6 5 6 5 5 5 5 6 7 9 9 9 9 9 8 7 7 7 7 7
11 6 5 7 3 6 6 22 7 11 16 20 22 31 6 8 10 10 8 11 14 12 9 8 8 5 5 6 6 6 6 6 7 9 8 9 9 9 8 8 9 8 8 7
12 16 4 5 3 7 14 11 24 20 14 17 19 19 8 11 11 10 9 7 9 7 8 8 7 5 4 5 6 7 7 7 9 8 8 8 10 10 9 10 9 9 8 9
20 16 4 8 9 6 4 7 7 13 28 17 20 19 11 4 2 12 8 8 10 9 8 8 8 9 5 7 7 8 8 7 8 9 9 8 10 11 10 11 10 9 10 9
17 18 13 4 11 14 14 9 8 8 20 21 20 17 15 8 7 19 7 8 10 10 10 12 11 9 8 8 8 9 8 9 8 8 8 8 9 10 11 10 11 7 9 10
15 10 16 13 6 9 6 5 8 12 12 8 16 16 13 13 20 5 8 7 10 11 14 14 15 13 12 10 11 10 8 8 6 7 8 9 9 10 11 9 9 10 11 11
14 12 10 5 6 12 9 6 19 11 4 2 4 9 13 22 7 8 8 7 9 11 13 14 14 14 12 12 11 12 9 8 8 9 9 9 9 8 9 12 10 10 11 11
5 10 11 15 16 3 12 10 13 4 6 5 4 2 7 7 6 7 7 8 9 11 11 11 13 15 11 11 12 12 11 11 10 9 10 10 9 8 9 11 11 9 9 8
3 3 5 6 8 9 7 6 4 7 6 4 5 6 6 5 7 8 5 5 7 10 14 12 15 15 15 12 11 13 14 12 12 12 10 9 10 9 8 7 7 8 8 7
6 11 6 3 2 3 5 10 8 8 3 5 5 7 7 6 6 6 5 7 8 9 7 11 14 14 14 14 12 12 12 12 12 12 10 9 8 9 8 6 6 6 4 7
7 13 9 11 9 7 8 11 9 8 10 11 8 5 4 6 8 5 6 6 8 10 10 10 10 12 13 13 14 13 13 13 13 12 9 8 8 8 8 8 8 12 11 12
Wind_Direction
208 187 210 197 205 226 187 219 219 239 259 218 237 251 260 240 214 257 243 234 230 229 238 190 189 185 180 183 185 189 183 179 174 171 177 189 195 182 176 184 186 177 181 178
36 239 209 203 231 235 234 229 249 275 258 188 274 261 260 233 227 230 234 233 227 235 203 193 189 186 190 189 188 189 191 186 184 182 190 186 177 175 183 181 200 186 175 176
196 236 203 180 194 219 232 233 212 224 327 265 312 274 256 246 239 242 240 237 231 222 218 205 191 197 194 194 193 193 190 188 187 180 156 102 95 81 144 182 188 200 181 175
229 234 195 204 233 188 243 187 220 225 202 251 127 279 252 247 250 227 241 224 230 223 220 215 201 194 197 205 195 194 189 187 185 177 178 188 195 198 196 174 163 187 187 184
228 193 203 216 207 185 241 179 197 208 204 1 245 280 264 210 243 246 239 229 231 222 209 212 202 201 205 193 194 191 182 183 185 183 188 187 195 196 141 147 166 185 191 194
236 222 177 208 176 189 173 102 87 89 119 247 230 197 252 233 222 251 244 235 238 229 212 219 212 202 196 187 184 183 185 186 183 185 190 192 196 172 158 166 176 188 186 195
225 233 234 179 180 133 162 156 182 177 188 236 185 187 245 254 253 230 243 252 238 226 213 217 202 192 185 182 184 185 184 187 181 186 192 193 194 183 184 178 181 169 181 189
195 255 188 192 200 172 194 188 177 192 201 235 117 226 250 229 251 251 242 248 271 251 238 229 220 207 195 186 182 181 184 185 182 184 192 190 192 187 190 183 180 189 191 197
168 252 218 213 174 162 206 209 219 77 19 117 217 281 293 249 266 259 245 240 254 244 254 251 219 200 192 185 183 185 182 186 186 187 182 186 187 185 188 181 182 185 183 173
216 271 226 191 130 239 179 156 181 210 178 225 253 243 233 303 258 269 276 238 250 245 237 266 241 203 191 185 175 178 178 185 185 183 182 183 183 185 185 172 183 185 184 171
176 170 293 133 202 191 179 184 211 175 165 209 258 254 214 223 246 279 277 273 235 219 208 189 157 69 175 152 162 175 172 170 172 182 180 174 180 179 173 182 185 189 169 172
197 166 180 204 245 298 220 197 198 203 223 235 194 251 205 227 248 262 272 274 255 203 203 189 173 177 166 172 167 178 176 173 173 175 171 180 169 168 172 181 177 167 180 171
173 222 56 348 344 225 203 207 208 219 59 227 222 262 211 253 254 264 276 285 224 166 201 193 201 198 199 173 174 173 176 176 158 158 163 160 165 169 176 179 166 164 166 172
170 183 204 213 207 141 212 197 215 220 234 242 235 250 315 283 289 295 275 249 225 206 204 212 218 238 215 190 176 172 169 164 157 155 159 164 167 172 172 160 160 163 162 160
173 202 207 231 234 188 203 215 205 208 227 215 243 244 215 254 278 235 238 221 231 230 218 215 205 214 210 180 156 144 148 156 155 151 153 159 148 143 141 148 148 144 147 149
207 234 164 276 213 187 230 220 218 215 231 238 249 255 217 230 261 245 209 213 226 230 214 213 199 196 200 176 161 142 136 133 140 140 139 134 136 135 138 134 130 124 121 124
184 145 96 258 220 159 287 233 206 230 228 219 234 241 154 226 237 251 231 209 224 220 196 195 181 194 191 166 152 144 135 124 116 122 129 132 131 128 129 123 120 120 119 114
248 200 155 214 68 191 247 187 224 225 232 228 242 253 207 230 238 238 232 222 233 201 189 180 161 167 174 136 119 117 121 124 121 118 121 124 126 124 122 119 117 113 115 115
225 195 182 181 202 290 277 225 177 191 245 227 227 237 218 225 249 270 231 200 218 196 181 176 166 150 153 138 131 122 115 113 121 125 125 124 127 125 124 121 120 116 114 109
196 209 204 112 213 221 243 196 145 94 266 231 227 230 211 144 225 253 187 189 197 186 165 160 154 137 141 142 135 129 129 128 131 133 129 121 123 125 122 123 120 110 110 108
183 198 201 204 212 271 228 193 135 163 248 200 202 216 192 193 220 188 189 206 195 182 169 155 156 156 150 148 138 134 133 133 125 117 115 116 115 119 119 111 115 116 114 109
181 177 194 170 178 256 176 110 177 213 256 174 157 228 212 219 203 196 192 193 167 161 156 163 161 152 153 148 144 140 137 131 124 120 114 112 113 118 120 120 117 117 116 118
191 191 178 186 203 195 184 192 220 179 162 184 181 198 188 164 175 191 207 196 177 165 162 162 158 143 152 153 150 143 143 137 128 118 118 117 110 111 118 127 127 124 127 127
263 190 163 108 210 214 194 234 211 183 190 173 163 165 162 169 192 220 230 193 171 162 164 159 153 161 156 159 154 145 147 140 133 128 125 122 119 116 116 119 130 130 134 140
191 142 155 270 259 61 269 212 199 228 216 191 195 188 194 184 214 223 224 201 175 159 154 165 167 163 155 145 129 135 134 137 133 129 126 125 124 128 123 110 120 129 127 151
200 163 179 223 168 172 211 215 170 190 207 219 199 217 217 196 226 211 230 185 161 159 151 158 155 149 146 141 139 142 144 146 142 133 135 137 136 133 128 124 117 111 124 138